TimeEST,TemperatureF,Dew PointF,Humidity,Sea Level PressureIn,VisibilityMPH,Wind Direction,Wind SpeedMPH,Gust SpeedMPH,PrecipitationIn,Events,Conditions,WindDirDegrees,DateUTC
12:53 AM,18.0,7.0,62,30.19,10.0,Calm,Calm,-,N/A,,Clear,0,2014-03-01 05:53:00
1:53 AM,19.9,6.1,55,30.17,10.0,SE,4.6,-,N/A,,Clear,140,2014-03-01 06:53:00
2:53 AM,19.9,7.0,57,30.15,10.0,SE,4.6,-,N/A,,Clear,130,2014-03-01 07:53:00
3:53 AM,21.0,7.0,55,30.14,10.0,SE,4.6,-,N/A,,Clear,140,2014-03-01 08:53:00
4:53 AM,23.0,7.0,50,30.14,10.0,SE,6.9,-,N/A,,Clear,140,2014-03-01 09:53:00
5:53 AM,23.0,10.0,58,30.16,10.0,SE,3.5,-,N/A,,Clear,130,2014-03-01 10:53:00
6:53 AM,26.1,12.9,58,30.16,10.0,SE,4.6,-,N/A,,Mostly Cloudy,130,2014-03-01 11:53:00
7:53 AM,28.9,12.0,49,30.17,10.0,ESE,4.6,-,N/A,,Partly Cloudy,120,2014-03-01 12:53:00
8:53 AM,32.0,12.9,45,30.19,10.0,Calm,Calm,-,N/A,,Overcast,0,2014-03-01 13:53:00
9:53 AM,36.0,10.9,36,30.19,10.0,Calm,Calm,-,N/A,,Scattered Clouds,0,2014-03-01 14:53:00
10:53 AM,37.9,10.9,33,30.19,10.0,Variable,4.6,-,N/A,,Overcast,0,2014-03-01 15:53:00
11:53 AM,39.0,12.0,33,30.19,10.0,SW,8.1,-,N/A,,Overcast,220,2014-03-01 16:53:00
12:53 PM,41.0,14.0,33,30.18,10.0,Variable,4.6,-,N/A,,Overcast,0,2014-03-01 17:53:00
1:53 PM,43.0,15.1,32,30.14,10.0,SW,9.2,-,N/A,,Overcast,220,2014-03-01 18:53:00
2:53 PM,46.0,19.0,34,30.11,10.0,Variable,6.9,-,N/A,,Partly Cloudy,0,2014-03-01 19:53:00
3:53 PM,46.9,19.9,34,30.13,10.0,WSW,8.1,18.4,N/A,,Mostly Cloudy,240,2014-03-01 20:53:00
4:53 PM,46.0,24.1,42,30.13,10.0,Variable,3.5,-,N/A,,Overcast,0,2014-03-01 21:53:00
5:53 PM,45.0,25.0,46,30.14,10.0,SW,6.9,-,N/A,,Partly Cloudy,220,2014-03-01 22:53:00
6:53 PM,42.1,26.1,53,30.14,10.0,SW,4.6,-,N/A,,Clear,220,2014-03-01 23:53:00
7:53 PM,42.1,28.0,58,30.14,10.0,SSW,4.6,-,N/A,,Overcast,210,2014-03-02 00:53:00
8:53 PM,42.1,28.0,58,30.15,10.0,SSW,3.5,-,N/A,,Overcast,210,2014-03-02 01:53:00
9:53 PM,42.1,28.9,60,30.13,10.0,South,4.6,-,N/A,,Overcast,190,2014-03-02 02:53:00
10:53 PM,37.0,25.0,62,30.14,10.0,NW,6.9,-,N/A,,Overcast,320,2014-03-02 03:53:00
11:53 PM,34.0,21.0,59,30.14,10.0,NNW,8.1,-,N/A,,Overcast,340,2014-03-02 04:53:00